Time,TemperatureF,DewpointF,PressureIn,WindDirection,WindDirectionDegrees,WindSpeedMPH,WindSpeedGustMPH,Humidity,HourlyPrecipIn,Conditions,Clouds,dailyrainin,SoftwareType,DateUTC
2013-03-05 00:04:00,26.1,24.0,30.00,East,100,10.0,0.0,100,0.00,,,-99.99,,2013-03-05 06:04:00,
2013-03-05 00:34:00,25.9,24.0,30.00,East,100,8.0,0.0,100,0.00,,,-99.99,,2013-03-05 06:34:00,
2013-03-05 01:04:00,25.6,24.0,30.00,East,100,8.0,0.0,100,0.00,,,-99.99,,2013-03-05 07:04:00,
2013-03-05 01:34:00,26.0,24.0,30.00,East,100,8.0,0.0,100,0.00,,,-99.99,,2013-03-05 07:34:00,
2013-03-05 02:04:00,25.7,24.0,30.00,East,100,8.0,0.0,100,0.00,,,-99.99,,2013-03-05 08:04:00,
2013-03-05 02:34:00,25.4,24.0,29.98,East,80,6.0,0.0,100,0.00,,,-99.99,,2013-03-05 08:34:00,
2013-03-05 03:04:00,25.4,24.0,29.98,East,80,5.0,0.0,100,0.00,,,-99.99,,2013-03-05 09:04:00,
2013-03-05 03:34:00,25.0,24.0,29.97,East,80,8.0,0.0,100,0.00,,,-99.99,,2013-03-05 09:34:00,
2013-03-05 04:04:00,24.8,24.0,29.97,East,90,9.0,0.0,100,0.00,,,-99.99,,2013-03-05 10:04:00,
2013-03-05 04:34:00,25.1,24.0,29.97,East,90,9.0,0.0,100,0.00,,,-99.99,,2013-03-05 10:34:00,
2013-03-05 05:04:00,24.6,23.0,29.98,East,90,6.0,0.0,92,0.00,,,-99.99,,2013-03-05 11:04:00,
2013-03-05 05:34:00,24.7,23.0,29.98,East,90,6.0,0.0,92,0.00,,,-99.99,,2013-03-05 11:34:00,
2013-03-05 06:04:00,24.9,23.0,29.98,East,80,8.0,0.0,92,0.00,,,-99.99,,2013-03-05 12:04:00,
2013-03-05 06:34:00,25.4,23.0,29.99,East,80,8.0,0.0,92,0.00,,,-99.99,,2013-03-05 12:34:00,
2013-03-05 07:04:00,24.9,23.0,29.99,ENE,70,8.0,0.0,92,0.00,,,-99.99,,2013-03-05 13:04:00,
2013-03-05 07:34:00,25.1,23.0,30.00,East,80,5.0,0.0,92,0.00,,,-99.99,,2013-03-05 13:34:00,
2013-03-05 08:04:00,25.9,23.0,30.00,ENE,60,6.0,0.0,92,0.00,,,-99.99,,2013-03-05 14:04:00,
2013-03-05 08:34:00,26.5,23.0,30.00,ENE,60,8.0,0.0,92,0.00,,,-99.99,,2013-03-05 14:34:00,
2013-03-05 09:04:00,27.4,23.0,30.01,NE,40,8.0,0.0,86,0.00,,,-99.99,,2013-03-05 15:04:00,
2013-03-05 09:34:00,27.5,21.0,30.02,ENE,60,8.0,0.0,79,0.00,,,-99.99,,2013-03-05 15:34:00,
2013-03-05 10:04:00,28.6,21.0,30.03,NNE,30,9.0,0.0,79,0.00,,,-99.99,,2013-03-05 16:04:00,
2013-03-05 10:34:00,26.3,21.0,30.05,NE,40,11.0,0.0,79,0.00,,,-99.99,,2013-03-05 16:34:00,
2013-03-05 11:04:00,27.3,23.0,30.06,NNE,20,8.0,0.0,86,0.00,,,-99.99,,2013-03-05 17:04:00,
2013-03-05 11:34:00,28.6,23.0,30.06,NNE,30,8.0,0.0,86,0.00,,,-99.99,,2013-03-05 17:34:00,
2013-03-05 12:04:00,29.9,23.0,30.07,NNE,20,9.0,16.0,86,0.00,,,-99.99,,2013-03-05 18:04:00,
2013-03-05 12:34:00,30.4,24.0,30.07,North,360,9.0,0.0,86,0.00,,,-99.99,,2013-03-05 18:34:00,
2013-03-05 13:04:00,30.8,24.0,30.07,North,360,11.0,0.0,86,0.00,,,-99.99,,2013-03-05 19:04:00,
2013-03-05 13:34:00,30.4,24.0,30.07,NNE,20,9.0,0.0,86,0.00,,,-99.99,,2013-03-05 19:34:00,
2013-03-05 14:04:00,31.9,23.0,30.07,NNE,20,13.0,0.0,79,0.00,,,-99.99,,2013-03-05 20:04:00,
2013-03-05 14:34:00,30.3,24.0,30.08,North,10,13.0,0.0,86,0.00,,,-99.99,,2013-03-05 20:34:00,
2013-03-05 15:04:00,29.4,24.0,30.09,NNE,20,14.0,0.0,80,0.00,,,-99.99,,2013-03-05 21:04:00,
2013-03-05 15:34:00,30.1,23.0,30.11,NNE,20,13.0,0.0,74,0.00,,,-99.99,,2013-03-05 21:34:00,
2013-03-05 16:04:00,28.7,21.0,30.12,North,10,10.0,0.0,68,0.00,,,-99.99,,2013-03-05 22:04:00,
2013-03-05 16:34:00,29.2,21.0,30.12,North,10,10.0,0.0,68,0.00,,,-99.99,,2013-03-05 22:34:00,
2013-03-05 17:04:00,29.0,23.0,30.16,North,360,10.0,0.0,79,0.00,,,-99.99,,2013-03-05 23:04:00,
2013-03-05 17:34:00,28.4,23.0,30.16,North,360,10.0,0.0,79,0.00,,,-99.99,,2013-03-05 23:34:00,
2013-03-05 18:04:00,27.6,21.0,30.18,North,350,10.0,0.0,79,0.00,,,-99.99,,2013-03-06 00:04:00,
2013-03-05 18:34:00,26.7,21.0,30.18,North,350,10.0,0.0,79,0.00,,,-99.99,,2013-03-06 00:34:00,
2013-03-05 19:04:00,26.5,21.0,30.21,North,350,8.0,0.0,79,0.00,,,-99.99,,2013-03-06 01:04:00,
2013-03-05 19:34:00,26.4,21.0,30.21,North,350,8.0,0.0,79,0.00,,,-99.99,,2013-03-06 01:34:00,
2013-03-05 20:04:00,26.6,23.0,30.21,North,350,9.0,0.0,86,0.00,,,-99.99,,2013-03-06 02:04:00,
2013-03-05 20:34:00,26.3,23.0,30.22,NNW,340,10.0,0.0,86,0.00,,,-99.99,,2013-03-06 02:34:00,
2013-03-05 21:04:00,24.8,21.0,30.24,North,350,11.0,0.0,79,0.00,,,-99.99,,2013-03-06 03:04:00,
2013-03-05 21:34:00,24.8,21.0,30.25,North,10,12.0,0.0,79,0.00,,,-99.99,,2013-03-06 03:34:00,
2013-03-05 22:04:00,23.0,19.0,30.27,North,10,12.0,25.0,79,0.00,,,-99.99,,2013-03-06 04:04:00,
2013-03-05 22:34:00,22.0,19.0,30.27,North,350,8.0,0.0,79,0.00,,,-99.99,,2013-03-06 04:34:00,
2013-03-05 23:04:00,22.1,17.0,30.28,North,350,9.0,0.0,85,0.00,,,-99.99,,2013-03-06 05:04:00,
2013-03-05 23:34:00,22.7,17.0,30.28,North,350,9.0,0.0,85,0.00,,,-99.99,,2013-03-06 05:34:00,